Weather in Oskuy

Russia / Novgorod Oblast     59°16′34″N   32°05′18″E
temp.,
°C
wind,
m/s
gust,
m/s
humid.,
%
clouds,
%
prec.,
mm/h
press.,
hPa
HPBL,
m
6 august, fri
fri600:00+12ene2898100 2.3 1015322
03:00+12nne2798100 2.8 1014299
06:00+12nne31097100 0.1 1013583
09:00+12nne389799 0.6 1013526
12:00+16ne4674100 0.1 10141009
15:00+14ne4684100 0.1 1013709
18:00+14ne4886100 0.0 1012557
21:00+14ene4989100 0.0 1012502
7 august, sat
sat700:00+14ene4129199 0.0 1011512
03:00+13ene41295100 0.0 1010451
06:00+14ene51395100 0.3 1009559
09:00+14ene51397100 3.2 1008651
12:00+15e51299100 12.9 1007674
15:00+16e41198100 21.0 1007854
18:00+17ese399898 0.0 1007514
21:00+17e379942 0.2 1007253
8 august, sun
sun800:00+16ese2699100 0.8 1007156
03:00+16s27978 0.8 1008270
06:00+14s2797100 0.0 1009216
09:00+15s2696100 0.0 1010298
12:00+19sse337786 0.1 1011868
15:00+19ssw357826 1.1 1013818
18:00+21sw236494 0.1 10131042
21:00+15sw1191100 0.1 101411
9 august, mon
mon900:00+14sse2292100 0.0 101533
03:00+14sse2496100 0.0 101566
06:00+15sse279413 0.0 1015170
09:00+21sse476975 0.0 1014442
12:00+24s5856100 0.0 1014987
15:00+24ssw586226 0.1 10151429
18:00+23sw476856 0.1 10151105
21:00+17ssw269215 0.1 1016137
10 august, tue
tue1000:00+16sw26976 0.0 1017121
03:00+14ssw239777 0.0 101853
06:00+15s22960 0.0 101856
09:00+20sw23725 0.0 1018488
12:00+23sw2353100 0.0 10181411
15:00+25ssw244486 0.0 10182176
18:00+23wsw1361100 0.0 1017243
21:00+17nne008092 0.0 101711